Regional Weather Roundup
Issued by NWS Charleston, SC

Current Version | Previous Version | Graphics & Text | Print | Product List | Glossary On
Versions: 1 2 3 4 5 6 7 8 9 10 11 12 13 14 15 16 17 18 19 20 21 22 23 24 25 26 27 28 29 30 31 32 33 34 35 36 37 38 39 40 41 42 43 44 45 46 47 48 49 50
000
ASUS42 KCHS 241027
RWRCHS

Regional Weather Roundup
National Weather Service Charleston SC
600 AM EDT TUE APR 24 2018

NOTE: "fair" indicates few or no clouds below 12,000 feet with no
significant weather and/or obstructions to visibility.

Not all stations are quality controlled. Use data with caution,
especially dewpoint observations.

SCZ027-030-031-034>040-042>050-241100-
...Southeast South Carolina...

CITY           SKY/WX    TMP DP  RH WIND       PRES   REMARKS
N Charleston   CLOUDY    68  67  96 SW5       29.88R FOG
Waterfront Prk   N/A     68  68 100 SW6       29.72S
Mount Pleasant CLOUDY    64  64 100 CALM      29.88F FOG
Johns Island   CLOUDY    68  68 100 SW6G12    29.88S FOG
Pinopolis        N/A     64  64 100 VRB2      29.79
Moncks Corner  CLOUDY    64  63  94 E5        29.88S FOG
Summerville    CLOUDY    66  64  94 CALM      29.88S FOG
Beaufort MCAS  MOCLDY    67  67 100 CALM      29.86S FOG
Beaufort Arpt  FAIR      64  64 100 S6        29.87S FOG
Hilton Head Is MOCLDY    66  64  94 S6        29.88S
Walterboro     CLOUDY    64  64 100 S6        29.88R
Allendale      CLOUDY    66  66 100 S5        29.84S FOG

...Southern Midlands and Pee Dee...

CITY           SKY/WX    TMP DP  RH WIND       PRES   REMARKS
Georgetown     CLOUDY    63  63 100 SE3       29.89F
Kingstree      CLOUDY    63  63 100 E9        29.88F
Orangeburg     CLOUDY    65  64  97 E5        29.86F FOG
Barnwell       CLOUDY    66  66 100 CALM      29.85S
Aiken          CLOUDY    61  61 100 E7        29.88S
Manning        RAIN      61  61 100 CALM      29.89R
Columbia       CLOUDY    65  65 100 E7        29.86S
Sumter         LGT RAIN  63  63 100 E7        29.86F
Florence       MOCLDY    64  62  93 E9        29.90F
Myrtle Beach   CLOUDY    64  63  94 E12       29.90F THUNDER
N Myrtle Beach LGT RAIN  63  63 100 E18G28    29.90F FOG

$$

GAZ063-065-086>088-099>101-113>116-118-119-134>141-150-241100-
...Southeast Georgia...

CITY           SKY/WX    TMP DP  RH WIND       PRES   REMARKS
Savannah Arpt  MOCLDY    66  63  90 SW7       29.88R
Hunter AAF     FAIR      64  63  94 SW6       29.85
Fort Stewart   FAIR      63  61  94 SW6       29.85S
Statesboro     FAIR      64  32  29 CALM      29.87R
Sylvania       FAIR      64  64 100 CALM      29.86S
Claxton        CLOUDY    66  64  94 CALM      29.87S

...CSRA, Central and far Southeast Georgia...

CITY           SKY/WX    TMP DP  RH WIND       PRES   REMARKS
Thomson        CLOUDY    62  61  96 SW6       29.89S
Augusta-Bush   MOCLDY    64  63  96 CALM      29.83S FOG
Augusta-Daniel MOCLDY    65  64  97 CALM      29.85R
Swainsboro     FAIR      59  55  88 CALM      29.87R
Vidalia        FAIR      59  57  94 SW7       29.87R
Eastman        PTSUNNY   59  49  70 SW3       29.90R
Hazlehurst     FAIR      60  54  78 SW5       29.87R
Alma           FAIR      60  56  86 SW6       29.88R
Waycross       FAIR      58  56  90 SW6       29.90R
Jesup          FAIR      63  59  88 CALM      29.88S
Baxley         FAIR      57  57 100 CALM      29.88R
Brunswick      FAIR      61  57  88 SW12      29.90S
Saint Simons   FAIR      64  62  93 W12       29.88S

$$

SCZ027-028-034-036>038-045-046-048>050-GAZ119-141-241100-
...Lake and Supplemental Coastal Observations...

STATION/POSITION TIME  TEMP    WIND        PRES    WAVE   SWELL
                       AIR SEA DIR/SP/G            HT/PER HT/PER/DIR
                 (UTC) (F)     (DEG/KT/KT) (MB)    (FT/S) (FT/S/D)
Winyah Bay       0945   65     100/  6     1012.0S
Lake Murray      0920   63      80/ 11/ 14 1010.5
ACE Basin NERRS  0945   67        CALM       N/A
Fort Pulaski     1000   66 65  240/  4/  7 1011.9
Sapelo Island    1000   65     240/ 12     1012.0

$$

ANZ835-935-AMZ111-154-330-350-352-354-370-450-454-472-241100-
...C-MAN and Buoy Observations...

STATION/POSITION TIME  TEMP    WIND        PRES    WAVE   SWELL
                       AIR SEA DIR/SP/G            HT/PER HT/PER/DIR
                 (UTC) (F)     (DEG/KT/KT) (MB)    (FT/S) (FT/S/D)
Buoy 41004       1010      68  180/ 19/ 25 1012.1
Buoy 41008       0950   66 65  220/ 10/ 12 1011.4R   6/10   5/ 90/10
Folly Beach CMAN 1000   66     240/  6/  8 1012.2R
Capers Nearshore 1008   67 63  220/  2/  8 1009.9F
Fripp Nearshore  1008   65 64  210/ 10/ 14 1011.1R


STATION/POSITION TIME  TEMP    WIND        PRES    WAVE   SWELL
                       AIR SEA DIR/SP/G            HT/PER HT/PER/DIR
                 (UTC) (F)     (DEG/KT/KT) (MB)    (FT/S) (FT/S/D)
5E St. Marys GA  1000      67                N/A     5/10   2/ 90/11
Frying Pan Buoy  1010   69 69  130/ 31/ 43 1013.0
Buoy 41025       1010   69 72  130/ 27/ 35 1020.7
Cape Lookout NC  1000          110/ 24/ 26 1018.8F
Buoy 41002       1010   68 72  120/ 27/ 33 1019.1
Buoy 41010       1010   71 74  160/  6/ 14 1013.7
St Augustine FL  1000   67 68  250/  4/  5 1013.0R


$$




USA.gov is the U.S. government's official web portal to all federal, state and local government web resources and services.